Location: Asheville, NC
(35.6000°N, 82.5500°W)
Time: 00:20:11
(UTC-04:00)

BEESAT 3 - Pass Details

Date: 10 March 2018
Orbit: 499 x 517 km, 64.9° (Epoch: 18 June)

Event Time Altitude Azimuth Distance (km) Brightness Sun altitude
Rises 20:02:20 0° 207° (SSW) 2,609 ? -18.8°
Reaches altitude 10° 20:04:29 10° 207° (SSW) 1,729 ? -19.3°
Maximum altitude 20:08:22 85° 120° (ESE) 521 ? -20.0°
Enters shadow 20:09:47 38° 33° (NNE) 800 ? -20.3°
